Wind_Speed
24 21 22 23 23 25 27 27 26 26 27 24 19 14 12 12 11 10 10 12 13 15 17 18 19 19 15 10 10 13 14 15 16 16 16 16 16 15 14 13 13 13 13 14 15 16 18 18 18 18 17 16 15 12 9 7 8 10 13 15 16 18 18 19 21 22 22 23 23 24 24 25 25 22 20 20 21 20 19 19 19 19 18 16 15 13 13
20 19 20 21 23 23 22 23 26 26 24 23 19 15 14 13 12 13 14 14 15 17 17 17 17 15 10 9 14 17 17 17 16 17 17 16 16 15 14 12 11 12 12 13 14 16 18 18 17 17 16 15 15 14 12 12 12 13 13 14 14 14 15 15 16 18 20 22 23 23 23 25 25 23 19 17 18 18 18 17 17 17 17 14 12 12 13
17 20 21 20 20 19 16 18 23 24 22 19 17 15 15 14 13 14 15 15 15 16 15 13 12 10 9 12 16 18 19 18 17 17 16 15 15 15 13 11 10 11 11 13 15 16 17 18 17 17 16 15 15 15 15 15 14 13 13 14 13 13 14 15 14 14 15 17 20 23 24 26 26 25 21 17 16 18 18 17 15 15 14 12 11 12 13
19 21 21 18 16 15 15 16 19 23 21 16 13 14 15 14 14 15 16 15 15 15 13 11 10 10 11 14 17 19 21 18 16 16 15 14 14 13 11 9 8 10 12 13 15 16 17 17 17 17 17 16 16 16 16 16 14 14 14 15 14 14 14 14 14 15 16 18 20 24 25 25 24 22 20 18 18 18 18 16 13 11 10 11 12 13 13
19 20 20 17 15 15 16 16 17 21 22 17 13 12 13 14 15 16 14 14 14 15 14 12 12 12 12 15 18 20 20 17 14 15 13 12 12 11 8 7 8 11 13 14 16 17 17 17 18 18 17 17 16 16 16 16 16 16 16 16 16 15 15 15 17 19 20 20 21 22 21 20 19 17 17 18 18 16 14 13 10 9 9 11 13 13 14
17 19 19 18 18 16 14 16 17 19 22 20 15 14 13 13 13 14 13 14 14 15 14 13 12 12 13 16 19 20 18 15 14 13 11 10 9 8 7 7 9 12 13 14 16 16 16 17 18 18 18 18 18 17 17 17 17 18 18 18 19 19 18 18 19 20 20 19 18 18 17 16 15 15 16 15 13 12 11 10 9 9 9 11 13 14 15
16 18 19 20 20 17 13 13 14 16 19 19 17 15 14 13 14 14 15 15 16 15 15 15 14 14 16 18 19 17 15 14 13 11 9 8 7 7 7 8 10 13 14 15 16 16 15 16 17 18 19 19 18 18 18 18 18 18 19 19 21 22 22 21 21 21 20 20 20 18 15 13 13 11 10 10 9 9 8 7 8 9 10 11 13 15 15
18 17 18 21 20 17 14 12 12 14 18 19 17 15 15 16 17 17 17 17 17 17 17 16 16 17 18 18 16 15 14 13 12 9 7 6 7 7 8 9 12 14 16 16 16 16 16 16 17 18 19 19 19 18 18 18 18 19 20 21 23 24 24 23 23 23 22 22 22 20 15 12 10 8 7 7 7 6 6 6 8 9 9 11 13 14 14
20 15 16 20 20 18 15 13 11 12 15 16 16 15 16 17 18 18 18 18 18 17 17 16 16 16 15 15 15 14 13 11 9 7 6 6 7 8 8 11 13 14 16 17 17 17 17 18 18 19 19 19 19 18 18 17 17 18 20 23 25 25 25 24 24 23 22 20 20 16 11 8 7 7 6 5 5 4 5 6 8 9 10 12 13 13 14
20 15 15 17 17 17 17 16 15 16 16 16 16 15 16 16 16 16 17 17 17 16 15 14 13 12 12 13 13 12 10 9 7 6 5 6 7 9 10 12 14 15 16 17 18 18 19 19 20 19 19 19 19 19 18 17 16 17 20 23 25 25 23 22 23 22 19 16 13 9 4 4 5 6 5 4 4 4 5 7 8 9 11 12 12 13 13
18 15 14 13 13 15 16 16 16 17 18 18 18 17 16 16 17 17 17 17 16 14 13 11 10 10 11 12 11 9 8 6 5 5 5 6 7 9 11 13 15 16 17 17 18 18 19 20 20 20 20 20 20 20 19 18 17 17 20 23 25 23 21 20 20 17 14 12 10 7 4 3 4 4 4 4 4 5 6 7 8 10 11 12 12 13 13
16 14 13 12 12 14 15 15 14 14 15 17 18 17 16 16 16 16 14 13 12 11 10 9 9 9 10 9 8 6 5 4 4 4 4 6 8 11 12 14 16 17 17 18 18 18 19 20 21 21 20 20 21 21 20 19 18 19 22 24 23 21 19 18 17 14 11 9 8 7 6 5 5 4 3 4 6 7 7 8 10 11 11 11 12 13 13
16 16 14 13 12 13 13 13 14 14 15 18 19 19 18 16 14 11 9 7 7 8 8 7 8 8 7 6 5 4 3 3 4 4 5 7 9 11 13 15 16 17 17 17 17 18 19 20 20 21 20 20 21 22 21 20 19 20 23 23 21 20 19 17 15 11 9 8 8 8 8 7 6 6 7 8 8 8 9 10 11 11 12 12 12 12 13
18 17 16 15 14 14 14 13 13 15 16 18 19 19 17 15 12 10 8 6 6 6 6 6 6 4 4 4 4 3 3 4 5 6 7 8 10 12 13 15 16 17 17 17 17 18 18 20 21 21 21 20 21 22 22 21 20 20 21 21 19 18 17 15 12 9 8 9 10 11 12 11 10 10 11 11 10 9 10 11 11 12 12 12 12 12 13
21 20 18 17 16 16 16 15 14 15 16 16 16 15 13 11 10 9 8 8 7 6 6 6 5 4 3 3 3 3 4 5 6 7 8 9 10 12 13 15 17 18 18 17 17 18 18 20 21 21 22 21 21 22 22 21 19 18 18 19 17 15 13 11 10 8 8 10 12 13 13 12 11 11 12 11 10 11 12 12 12 12 13 12 12 13 13
25 23 22 22 21 19 18 17 16 17 17 16 14 11 10 9 9 9 9 9 9 8 7 6 6 5 4 3 3 3 4 5 7 9 9 10 11 12 14 16 18 19 20 19 18 18 19 20 21 22 22 23 22 23 23 23 20 18 17 17 16 13 10 9 8 8 8 9 10 11 11 11 11 11 10 10 10 11 12 13 13 13 12 12 12 13 14
25 25 25 24 22 21 20 20 20 20 19 17 14 11 10 10 10 9 9 8 9 9 9 8 7 6 5 4 4 4 5 6 8 9 10 10 11 12 14 16 18 20 21 21 21 20 19 19 21 22 22 23 23 24 25 26 26 23 21 19 18 15 12 10 8 8 8 8 8 9 10 11 11 10 9 9 10 11 12 13 13 12 12 12 13 14 13
22 25 25 22 18 17 17 17 18 18 17 15 13 11 11 11 10 10 9 8 9 10 11 10 9 7 5 5 5 5 6 7 8 9 10 10 11 11 13 15 17 19 21 22 22 22 21 20 20 21 22 24 24 25 26 28 30 29 26 24 23 20 16 12 10 9 9 8 8 8 9 10 10 9 8 9 10 11 13 13 13 12 12 12 13 13 13
20 19 18 16 12 10 10 12 12 12 12 11 9 9 10 10 10 10 9 9 9 10 11 11 9 7 6 6 6 6 7 8 8 9 10 11 11 11 12 14 16 18 20 22 23 23 23 22 21 21 22 24 25 25 25 25 27 29 29 28 26 23 19 14 11 10 9 9 9 8 8 8 8 8 9 11 12 12 13 13 13 13 12 12 12 13 13
22 18 15 14 10 7 8 8 9 10 10 10 9 8 9 10 9 9 9 10 10 11 11 11 9 7 7 7 7 7 8 8 9 10 11 11 11 11 12 14 16 19 21 22 23 23 23 24 24 23 23 24 24 23 21 21 23 26 27 26 25 23 19 13 9 7 7 8 8 8 7 7 7 9 12 14 14 13 12 13 13 13 12 12 13 13 12
20 18 16 15 12 10 11 10 10 11 11 10 9 9 9 9 8 8 9 10 11 12 11 10 9 9 9 10 9 9 9 10 11 11 12 12 12 13 14 15 17 19 21 22 23 23 23 24 24 25 24 24 24 22 19 19 21 24 26 27 26 23 17 10 5 3 5 6 6 7 8 8 9 11 14 15 13 12 12 12 13 13 12 12 13 12 12
18 18 18 16 14 13 13 13 13 13 12 11 11 11 11 10 9 9 10 11 12 12 12 11 11 11 11 11 11 11 11 11 12 12 13 13 14 14 15 16 17 19 21 21 22 22 23 23 23 24 24 25 24 21 19 19 20 21 25 28 28 24 18 12 9 6 5 6 5 6 8 10 11 13 15 14 13 12 12 13 14 14 13 13 12 12 12
21 20 18 16 14 14 14 14 15 15 15 14 13 13 13 12 10 10 11 11 12 12 12 12 12 12 12 12 12 13 13 13 12 13 13 13 14 15 16 17 18 20 21 21 21 21 21 21 22 23 24 24 23 21 18 19 20 21 24 27 28 25 20 15 13 10 9 9 9 8 9 9 10 11 13 14 13 13 13 14 15 15 14 13 12 11 11
20 19 18 16 15 15 16 16 16 16 16 16 16 16 15 14 12 11 11 11 12 12 12 12 13 13 13 14 14 14 14 13 13 13 14 14 15 15 16 17 18 20 21 21 21 21 20 20 21 22 22 22 22 20 19 20 21 21 21 23 25 24 21 17 14 11 10 10 10 10 10 9 9 10 12 14 14 14 14 14 15 15 13 12 11 10 10
20 21 21 19 18 18 18 18 17 16 17 17 18 19 18 16 14 13 12 12 13 13 13 13 14 14 15 15 15 15 15 14 14 14 15 15 15 15 16 17 18 20 21 20 20 19 20 20 20 21 21 20 19 18 19 21 22 21 19 20 22 22 21 19 15 11 10 9 9 9 11 10 9 10 13 14 15 14 13 13 13 14 13 11 10 10 9
25 25 24 22 21 20 20 19 18 17 18 19 20 20 21 20 18 15 14 14 15 15 15 15 15 15 16 16 17 17 16 16 15 15 16 16 16 15 16 17 18 19 19 19 18 18 19 19 19 19 19 18 17 17 19 21 22 21 19 19 19 20 19 18 17 15 13 10 8 9 11 11 11 12 14 14 14 14 13 12 12 12 12 11 10 9 9
27 27 26 25 23 22 22 22 21 20 20 20 21 21 22 22 20 18 16 16 17 17 17 17 16 16 16 17 17 17 16 16 16 16 17 17 16 15 15 16 17 18 18 18 17 17 18 19 18 18 18 17 16 17 18 19 21 21 20 19 18 18 18 18 17 17 17 15 12 10 10 11 12 13 14 14 13 13 13 12 11 11 11 10 10 9 8
27 27 26 26 25 24 24 24 23 22 22 21 21 21 21 22 22 20 19 18 19 18 18 18 17 17 17 17 17 16 16 16 16 16 17 17 16 16 16 16 17 17 17 17 17 17 17 18 18 17 17 16 15 15 16 17 19 20 20 19 18 16 16 17 17 17 17 17 16 12 10 10 12 12 13 13 13 13 13 12 11 11 11 10 9 9 8
27 26 26 26 27 26 24 23 22 23 22 22 21 21 22 23 23 22 21 21 21 20 19 19 18 17 17 17 17 17 16 15 15 16 17 17 16 16 16 17 17 17 17 17 17 17 17 17 17 17 16 16 15 14 14 15 17 19 20 19 18 17 15 15 16 16 16 15 15 14 12 11 11 10 10 12 12 12 12 12 11 10 10 10 9 8 8
26 26 26 27 28 27 25 23 24 24 23 22 22 23 24 24 24 24 24 24 23 21 20 20 19 18 18 18 18 17 16 15 16 17 17 17 17 16 17 17 18 17 17 16 17 17 16 15 15 15 16 16 15 14 13 14 15 17 19 20 19 18 17 16 15 16 16 15 14 14 13 13 11 9 8 10 11 12 12 11 11 10 10 9 9 8 8
27 27 28 28 28 27 26 25 25 25 24 23 23 23 25 26 26 26 26 25 24 22 21 20 20 19 19 18 18 17 17 17 17 17 18 17 17 17 17 17 17 17 17 17 16 15 14 13 13 14 14 15 15 15 14 14 14 15 17 19 19 19 18 17 16 15 16 16 15 14 14 13 12 10 8 8 10 11 11 11 10 10 10 9 9 8 8
28 28 29 29 29 28 27 27 26 26 25 24 24 25 25 26 26 25 25 24 24 23 22 21 21 20 19 19 19 18 18 18 18 18 18 18 17 17 17 16 16 17 17 17 15 12 11 12 13 13 14 15 15 16 15 15 15 15 16 17 19 19 19 18 17 16 16 17 17 16 15 14 13 12 10 8 9 10 11 11 10 10 10 9 9 8 8
29 29 29 29 29 29 28 27 26 25 25 24 24 25 25 25 25 25 24 24 24 24 23 22 21 20 20 20 20 19 19 19 19 19 18 18 18 17 16 15 16 17 17 15 13 11 11 12 13 14 15 15 16 16 17 17 16 16 15 16 18 19 20 19 19 18 18 18 18 18 17 15 15 14 12 10 9 9 11 11 10 10 10 9 9 8 8
30 30 30 30 29 28 27 26 25 23 23 23 23 23 24 24 24 24 24 24 24 24 23 22 21 21 21 21 20 20 19 19 19 19 18 18 17 16 16 16 17 17 17 15 13 12 12 13 14 15 16 16 17 17 17 18 18 17 17 16 17 18 20 20 20 19 19 19 19 19 19 18 16 15 14 12 11 10 11 11 11 10 10 10 9 9 8
31 30 30 29 29 28 26 25 23 22 21 21 21 22 23 23 23 24 24 24 23 23 23 22 22 22 21 21 20 20 20 20 19 19 18 17 17 17 17 18 18 18 17 16 14 13 12 13 14 15 16 17 17 18 18 18 18 18 18 18 18 18 19 20 21 20 20 19 19 20 20 19 19 17 15 14 12 11 11 11 12 11 11 10 10 9 9
32 30 30 30 29 28 27 25 24 22 21 21 22 23 23 23 23 24 24 23 23 23 23 23 22 21 21 21 21 20 20 20 19 19 18 18 18 19 19 19 19 19 18 16 15 14 13 12 13 14 15 16 17 18 19 19 20 19 19 19 19 19 19 20 21 21 21 21 20 20 20 20 20 19 17 15 14 12 11 11 12 12 12 11 10 10 10
33 32 31 30 29 28 27 27 26 24 23 22 22 22 23 23 23 23 23 23 22 22 22 22 21 21 21 21 21 21 20 20 21 21 21 20 20 20 21 20 20 20 19 18 17 16 15 14 13 14 15 16 18 18 19 20 20 21 21 21 20 20 20 20 21 21 22 22 22 21 21 21 21 21 20 18 16 14 12 12 12 13 13 12 12 11 11
34 34 32 31 30 29 28 28 27 25 24 23 22 23 23 23 22 22 22 22 21 21 21 21 21 21 21 22 22 22 21 22 23 23 22 22 22 22 22 21 21 20 20 19 18 18 17 17 17 17 17 18 19 20 21 22 22 22 22 22 22 21 21 21 22 22 22 23 22 22 22 22 22 21 21 20 18 16 14 13 13 13 13 13 13 13 12
34 34 33 32 30 30 29 27 26 25 24 24 23 23 23 22 22 22 22 21 21 20 20 21 21 21 22 22 23 23 23 24 24 24 23 23 22 22 22 21 21 21 21 20 20 20 20 20 20 21 21 22 22 23 24 25 25 25 24 24 23 23 22 22 22 23 23 24 23 22 22 23 22 20 20 21 21 19 17 15 14 13 14 14 14 14 14
33 33 33 32 31 30 29 28 26 25 25 24 24 23 23 23 22 22 22 22 21 21 21 21 22 22 23 23 23 24 24 24 24 24 23 23 23 22 22 22 22 22 22 22 22 22 23 23 24 24 25 25 26 26 27 28 28 28 27 26 25 24 24 24 23 23 24 24 24 23 23 23 22 20 21 22 22 21 20 18 16 14 14 14 15 15 15
33 33 32 32 31 30 29 28 27 26 25 25 25 25 24 24 24 23 23 23 23 22 23 23 23 23 23 23 24 24 25 25 24 24 24 24 23 23 23 22 23 23 23 24 24 24 25 26 26 27 28 28 29 29 30 30 30 30 30 29 28 26 25 25 24 24 24 25 25 25 24 23 22 22 22 23 22 22 21 20 18 16 15 15 15 16 16
33 33 32 31 31 30 30 29 28 27 26 26 26 26 26 26 25 25 24 24 24 24 24 24 24 24 24 24 25 25 25 25 25 25 25 25 24 24 24 24 24 25 25 26 26 27 28 29 29 30 31 31 32 32 32 33 32 32 32 31 30 29 28 26 25 25 25 25 25 25 25 25 24 23 23 23 23 22 21 20 20 19 17 16 16 17 17
33 33 32 32 31 31 30 30 29 28 28 28 28 28 28 27 27 26 26 26 26 26 26 25 25 25 26 26 26 26 26 26 26 26 26 26 26 27 27 27 27 27 27 28 29 30 31 32 32 33 33 34 34 35 35 35 34 34 34 33 32 31 30 28 27 26 25 25 25 26 26 26 26 25 25 25 24 22 21 21 22 21 19 17 17 17 18
34 34 33 32 31 31 30 30 29 29 29 29 29 29 29 29 29 28 28 28 28 28 28 27 27 28 28 28 29 29 28 28 29 29 29 29 28 29 29 29 29 30 30 31 32 32 33 34 35 36 36 36 36 36 36 36 36 36 35 35 34 33 31 30 29 27 26 25 25 26 26 27 27 27 27 27 26 23 22 22 23 23 21 20 18 18 18
35 34 34 33 32 31 31 31 30 30 30 30 31 31 31 31 31 31 30 30 30 29 29 29 29 30 30 31 31 31 31 31 31 31 31 31 31 30 31 31 32 32 33 33 34 35 36 36 37 37 37 37 37 37 37 37 37 37 36 36 35 34 33 31 30 29 28 27 26 26 26 27 28 28 28 28 28 26 24 23 24 24 23 22 20 19 19
35 35 34 34 33 33 33 32 32 32 32 32 32 32 32 32 32 32 32 31 31 31 31 31 31 31 32 32 32 32 32 32 32 32 32 32 32 32 32 32 33 34 35 35 36 36 37 37 37 38 38 38 38 38 38 38 37 37 36 36 35 34 33 33 32 31 30 29 28 28 27 27 27 28 29 29 30 29 27 26 25 24 23 23 22 21 20
35 35 35 34 34 34 34 33 34 34 33 33 33 33 33 33 33 33 32 32 32 32 32 32 32 33 33 33 33 33 33 33 32 32 33 33 34 34 33 34 34 35 35 36 37 37 38 38 39 39 39 39 39 39 39 38 37 37 36 36 35 35 34 33 32 32 31 30 29 29 29 28 28 28 28 29 30 30 29 29 28 26 25 25 25 23 21
36 35 35 34 34 34 34 34 34 34 34 33 33 33 33 33 33 33 33 33 33 33 33 33 33 33 34 34 34 34 33 33 33 33 34 34 35 35 35 35 35 36 36 37 38 39 39 40 40 40 40 40 40 40 39 38 37 36 36 35 35 34 34 33 32 31 31 30 30 29 29 29 29 29 29 29 30 30 30 30 30 29 28 27 26 25 23
36 35 35 34 34 34 34 34 34 34 33 33 33 33 33 33 33 34 34 33 33 33 33 33 34 34 34 34 34 34 34 34 35 35 35 35 35 36 36 36 36 37 38 39 40 41 41 41 41 42 41 41 40 39 38 37 36 35 35 35 34 34 33 33 32 30 30 29 29 29 29 29 30 30 30 30 31 32 32 31 31 31 30 29 27 26 24
36 35 35 35 35 35 34 34 34 33 33 33 33 33 33 33 33 33 33 33 33 33 34 34 35 35 35 35 35 35 35 35 36 36 36 36 37 37 38 38 39 40 41 42 43 43 43 43 43 42 41 40 39 38 36 35 35 35 34 33 33 32 32 31 31 30 29 28 28 28 28 28 29 30 31 31 31 32 33 33 32 32 32 30 29 28 26
35 35 35 35 35 34 34 33 33 33 33 33 33 33 33 33 33 33 33 33 33 33 34 35 35 35 35 35 35 35 36 37 37 38 38 38 38 38 38 39 39 40 40 41 41 41 40 40 40 39 38 38 37 36 35 34 33 33 32 32 31 31 31 31 30 30 30 29 29 29 28 28 28 29 30 31 32 33 34 35 34 34 33 31 29 28 29
35 35 35 35 34 34 33 33 33 33 33 33 33 33 33 33 34 34 34 34 35 35 36 36 37 36 36 36 36 37 37 38 37 36 36 35 35 36 36 37 37 37 37 37 37 36 35 35 35 36 36 35 35 34 33 32 32 32 32 31 31 30 31 31 31 31 31 31 31 31 31 31 30 30 30 31 32 33 34 35 36 36 35 33 31 30 30
Wind_Direction
189 194 195 194 196 200 205 210 212 214 217 219 220 226 240 248 252 261 272 282 291 295 299 303 304 307 312 325 357 5 355 340 331 330 333 333 330 330 337 345 347 346 350 356 360 359 359 3 8 7 3 360 357 355 347 326 301 292 292 295 300 301 301 298 293 287 281 279 284 293 297 294 289 289 292 295 300 307 310 314 318 321 322 325 328 327 326
195 195 194 194 195 200 207 212 215 216 215 215 217 228 243 249 253 260 269 279 289 294 297 298 298 300 312 347 1 355 342 331 329 334 336 331 328 330 335 341 341 342 351 357 357 357 357 359 3 3 358 354 350 346 337 326 318 313 310 316 324 327 327 326 318 305 295 288 286 286 289 289 286 286 291 297 306 313 315 317 321 323 326 330 330 326 323
201 195 191 193 194 197 206 214 219 219 216 217 223 231 238 244 252 260 266 276 289 299 300 296 293 293 311 339 346 340 330 323 323 331 334 329 327 330 334 337 337 341 350 355 355 355 355 356 359 358 354 351 348 344 339 335 332 327 327 333 341 346 345 342 334 320 307 297 291 288 290 292 289 286 288 292 303 317 322 322 323 327 331 334 331 326 322
204 198 193 194 195 197 199 205 216 220 218 218 221 224 229 238 249 257 265 279 294 304 303 293 293 305 320 333 333 326 319 316 320 329 331 328 328 329 332 336 338 341 349 353 353 353 354 355 357 356 352 349 346 342 340 339 336 332 333 339 344 345 341 334 326 320 314 310 306 302 298 294 288 284 285 287 294 311 324 326 324 329 334 333 331 327 325
201 198 196 197 196 197 200 202 210 218 220 219 214 217 227 238 247 255 267 283 296 304 301 291 298 315 325 327 323 316 312 313 319 328 332 331 330 330 334 341 341 344 349 350 350 352 355 356 356 355 350 345 342 340 339 338 335 333 336 340 342 341 335 326 321 320 318 316 317 317 312 302 291 287 291 293 293 304 320 326 324 329 334 333 330 329 331
192 193 196 198 193 191 201 208 212 217 221 222 221 226 236 243 250 257 267 279 291 298 295 288 296 312 316 317 316 311 308 312 317 324 333 335 332 338 349 348 344 345 347 347 349 353 356 356 355 353 349 345 341 339 338 338 335 335 338 339 339 339 335 327 322 320 320 320 324 326 322 314 304 295 293 293 293 303 319 326 325 328 336 334 330 332 337
190 191 197 203 196 189 194 205 213 217 218 221 225 233 244 252 259 265 269 276 282 286 287 287 293 303 308 310 310 306 305 311 315 323 334 336 336 349 356 348 345 346 344 345 350 354 355 356 354 350 348 346 342 340 339 338 337 337 338 338 338 337 334 327 322 320 321 323 323 319 308 307 310 301 291 292 299 311 324 329 327 330 337 338 334 335 338
197 194 199 203 197 192 193 199 212 220 221 226 233 243 256 264 268 271 272 273 276 279 283 287 290 297 303 305 303 301 304 310 317 328 337 337 341 350 352 349 349 347 345 346 350 352 353 354 351 347 345 344 342 341 339 338 338 338 336 336 335 334 331 325 322 322 321 318 318 312 299 293 302 304 303 313 321 327 336 336 329 332 344 345 338 336 339
200 200 203 205 204 205 208 211 221 229 230 234 240 252 266 272 272 272 270 270 273 277 281 286 291 296 301 302 300 301 305 312 324 339 342 339 344 350 351 350 349 349 348 348 348 348 349 351 348 344 341 340 340 340 339 340 340 337 336 335 333 331 329 325 323 322 319 315 317 315 301 287 297 311 326 339 342 345 347 340 335 342 352 348 339 338 343
199 201 203 206 212 219 224 227 232 239 241 242 246 259 272 277 277 276 274 272 273 276 283 289 294 300 303 302 302 302 308 319 336 349 346 342 346 348 349 348 349 351 351 350 347 344 346 347 346 341 337 336 337 337 338 342 341 338 338 335 330 329 329 326 325 324 322 322 326 328 315 296 312 336 357 4 358 352 349 345 346 353 354 347 341 343 347
198 202 207 210 218 227 234 238 241 244 246 247 254 267 277 281 284 284 281 275 272 277 288 295 302 309 308 302 300 302 310 329 352 358 349 343 341 342 345 348 348 349 351 349 344 341 343 344 343 340 336 333 333 334 337 341 341 341 341 337 331 331 333 333 333 333 335 338 341 345 349 348 3 21 22 2 349 351 355 357 359 359 354 348 346 347 351
201 205 213 220 227 234 241 248 252 253 255 259 267 276 280 282 289 290 282 275 273 276 286 298 305 307 302 294 291 297 311 344 6 3 356 349 341 340 342 345 346 347 348 347 342 339 340 341 341 339 335 331 330 330 334 339 341 344 345 341 337 339 344 347 349 348 351 357 3 12 22 30 41 42 20 358 358 2 7 10 5 358 353 352 351 352 355
211 213 220 226 233 241 248 254 257 259 265 271 274 276 276 281 291 295 282 272 274 275 281 293 296 292 288 281 278 286 311 340 346 347 350 346 339 337 338 339 341 343 345 343 339 336 336 338 339 338 334 331 328 327 332 339 342 347 348 345 344 351 356 0 5 8 14 28 36 38 34 29 25 23 22 22 18 15 16 14 5 356 355 358 357 356 359
211 216 223 227 233 244 249 252 258 262 266 270 273 274 276 277 282 285 275 263 262 267 275 281 276 266 262 261 261 279 315 326 329 336 341 338 334 333 332 332 335 338 340 340 337 333 332 333 334 334 335 333 328 325 330 336 341 347 350 347 350 360 5 12 22 28 37 46 44 34 25 21 21 25 28 26 20 16 16 11 3 359 1 2 359 358 3
211 219 226 230 236 245 247 249 256 260 261 267 274 277 274 269 270 274 267 252 248 257 269 266 250 233 229 238 256 282 306 321 332 335 333 330 328 327 326 328 331 334 336 337 334 329 326 326 327 330 334 336 331 325 326 331 337 346 350 349 353 2 8 16 26 30 34 40 39 30 22 21 25 30 28 23 18 16 13 9 5 4 4 2 359 1 6
219 226 234 239 242 246 247 248 250 253 258 266 273 275 271 267 271 278 272 257 250 254 258 251 238 228 222 224 248 277 298 321 332 330 323 321 323 325 326 328 329 331 333 333 330 325 321 319 322 327 333 336 333 327 325 327 335 345 350 348 349 356 2 9 17 19 22 31 35 30 25 24 29 32 29 23 20 15 11 9 8 7 5 1 360 4 7
227 232 238 244 249 252 252 251 250 252 257 262 265 270 273 272 274 283 284 269 253 246 245 241 234 227 222 223 243 268 292 309 315 316 315 316 319 322 323 323 324 325 325 325 324 321 318 316 318 324 330 333 334 331 330 331 336 345 352 352 348 346 351 2 10 7 8 18 28 29 28 27 28 30 29 26 23 18 14 12 10 6 4 2 1 5 6
229 234 239 244 250 253 250 248 247 249 253 256 258 263 266 265 269 280 285 272 251 240 238 236 230 224 226 236 250 266 280 292 300 307 311 312 312 314 314 316 318 318 317 317 318 318 317 317 319 323 327 332 335 339 340 340 341 346 351 352 348 343 341 349 0 359 358 5 16 25 31 29 25 26 27 28 28 23 16 12 9 6 5 2 2 5 5
223 229 233 236 240 245 242 239 240 241 241 243 246 252 255 257 262 269 273 266 253 242 239 237 229 226 235 246 255 264 274 288 300 307 309 308 307 308 310 313 315 314 314 314 316 317 318 319 321 324 328 332 337 345 350 347 344 345 347 348 348 345 340 340 348 355 356 357 3 17 29 29 22 22 27 29 27 22 15 10 7 6 4 1 2 6 5
225 225 225 227 236 252 258 249 238 231 228 230 237 245 248 248 251 255 257 257 252 249 248 245 240 241 249 255 259 265 277 292 302 305 305 307 309 312 314 314 315 314 314 315 316 318 319 320 322 326 330 332 337 346 353 349 343 344 346 345 342 342 342 338 339 353 6 5 1 7 20 24 16 14 19 23 21 13 10 8 6 5 3 1 5 7 5
228 226 226 232 245 262 267 256 236 223 219 223 232 237 235 232 235 241 245 247 249 251 253 253 252 256 261 265 266 270 280 293 300 302 306 310 314 316 316 315 314 312 312 314 315 317 319 320 323 326 329 331 335 343 351 347 342 345 349 346 339 334 333 326 312 341 27 30 8 359 7 12 8 5 10 15 13 6 5 7 7 6 5 4 7 8 6
223 221 225 234 246 259 266 258 242 230 225 225 227 228 224 223 227 234 237 240 244 247 249 251 255 260 265 268 270 274 281 290 296 302 308 312 315 315 313 311 310 310 311 313 314 316 318 320 324 327 329 330 335 342 346 341 340 347 353 351 346 338 329 315 302 317 10 25 8 357 3 6 4 2 1 4 4 2 4 7 7 7 8 6 6 6 5
218 223 230 240 249 258 262 257 247 241 236 233 230 225 222 222 226 232 234 233 235 238 243 249 255 261 265 269 272 276 281 287 294 301 307 309 309 309 307 307 308 310 312 313 313 315 318 322 327 330 331 332 335 340 340 338 343 355 359 357 355 352 344 331 320 322 343 355 350 352 0 2 2 358 353 353 359 2 3 5 6 6 6 3 1 1 2
224 233 242 249 254 258 259 255 251 246 241 236 231 225 222 223 228 233 234 234 235 239 244 250 256 261 265 269 273 277 281 287 292 298 303 303 302 302 303 306 309 311 311 312 314 317 320 326 331 333 333 335 337 339 337 338 347 358 2 360 0 1 358 352 342 332 332 334 333 338 347 352 355 353 349 351 357 1 1 1 3 4 2 357 355 356 356
236 242 247 251 255 258 258 256 253 249 244 239 233 228 225 226 230 234 237 240 242 244 245 249 255 260 265 269 272 276 282 287 290 294 297 297 298 299 302 305 308 308 308 310 314 317 321 327 332 334 335 338 341 340 337 338 345 353 358 358 1 3 3 3 1 351 336 323 316 325 338 343 344 347 351 353 355 355 355 356 359 1 357 351 350 350 349
238 241 246 250 255 256 254 251 250 247 242 239 235 231 228 228 230 234 240 244 245 245 245 249 254 260 265 269 272 276 281 285 286 288 291 293 295 296 299 302 303 304 305 308 312 318 323 326 330 333 336 340 344 344 340 338 341 345 348 352 357 0 2 4 7 5 357 341 321 319 331 339 341 343 349 352 351 349 349 350 354 357 353 348 347 345 341
239 242 246 250 252 250 245 241 241 242 240 238 236 233 230 229 230 235 242 245 246 244 244 248 253 259 264 269 273 277 280 281 282 285 288 290 290 291 294 298 300 301 302 305 310 317 321 323 326 331 336 341 346 346 342 339 338 339 341 345 350 355 355 355 358 2 3 360 349 334 331 339 343 343 343 345 345 344 342 343 348 352 349 345 344 340 335
242 244 246 247 246 242 238 238 240 243 243 242 241 238 234 231 231 236 241 245 245 243 244 248 254 260 265 270 273 276 278 280 281 284 286 287 287 289 293 297 298 297 298 302 309 315 318 320 322 326 333 340 345 347 344 339 336 336 338 341 345 347 348 347 347 351 356 0 1 355 344 339 340 340 339 338 337 338 338 337 339 344 345 342 340 336 333
241 242 242 242 240 239 241 244 247 247 247 245 242 239 234 232 232 236 241 243 243 243 246 250 255 260 266 270 274 276 278 280 280 282 284 285 286 289 293 294 293 292 293 299 307 312 315 317 318 321 327 334 341 345 344 339 334 332 333 337 341 342 343 342 340 341 344 350 355 356 351 344 339 336 335 333 331 331 335 334 330 336 341 339 335 333 331
234 236 237 238 240 241 244 246 247 247 247 245 241 237 235 234 235 239 242 242 242 243 247 251 256 260 265 270 274 276 276 277 279 280 282 283 283 286 289 289 287 287 291 298 305 310 314 317 319 321 325 330 335 340 339 337 333 330 329 333 337 339 341 341 339 336 336 338 342 346 347 347 343 335 332 331 328 326 330 330 325 328 335 335 330 328 325
231 233 236 238 240 242 244 246 246 247 247 246 243 239 237 237 239 242 243 243 242 244 248 253 256 259 264 270 275 275 274 275 277 278 278 278 279 281 283 283 284 287 293 300 304 309 316 321 324 326 330 333 336 338 337 335 333 330 328 329 331 333 336 339 339 335 333 333 335 338 340 342 343 337 330 329 327 324 326 327 322 322 327 329 325 321 317
233 235 237 239 241 242 243 244 244 244 244 244 243 241 240 240 242 245 247 246 245 246 251 255 257 260 265 272 275 274 272 272 273 274 274 273 274 276 278 281 283 287 293 298 301 305 315 322 325 328 332 335 337 339 338 336 335 332 329 328 328 329 330 333 335 335 333 332 333 335 336 337 339 338 333 327 325 324 325 326 321 316 317 321 319 315 311
233 235 237 238 239 239 240 241 243 244 244 243 243 243 244 244 245 247 249 249 248 250 254 258 261 264 269 273 272 270 268 268 270 270 269 268 269 274 278 280 282 285 289 291 292 298 308 316 319 322 326 329 331 333 335 335 335 334 331 328 326 325 326 327 329 332 332 331 330 332 333 333 335 336 335 331 326 322 322 324 320 310 307 311 313 309 305
232 234 236 237 237 237 239 241 244 245 245 245 245 245 246 247 248 250 251 251 252 255 259 262 266 268 269 268 267 266 266 267 267 267 266 266 270 277 281 280 279 282 283 283 284 290 300 308 313 316 319 322 324 326 328 330 331 332 331 329 325 323 321 322 323 325 327 327 327 328 329 330 330 332 332 330 326 319 315 316 317 309 301 302 305 303 299
232 234 236 238 238 238 239 240 242 244 246 248 248 248 249 250 252 253 254 256 258 261 263 265 266 266 264 263 263 264 266 268 268 267 268 271 277 281 282 279 277 276 276 276 279 286 294 302 308 312 315 318 320 321 323 324 325 326 327 326 325 322 319 318 318 318 319 321 321 322 323 324 325 327 327 327 324 318 310 309 311 309 300 296 296 298 296
231 233 235 236 237 237 237 238 240 244 247 249 250 250 251 252 254 255 256 258 259 261 262 262 261 260 259 261 263 266 268 270 271 272 274 277 280 281 280 277 274 272 271 271 275 281 288 296 304 309 313 316 319 320 321 321 321 321 322 321 321 321 319 316 315 314 314 315 316 317 318 320 320 321 321 320 320 317 310 304 303 305 301 295 291 292 291
228 229 231 232 233 234 235 237 239 242 243 244 245 246 247 247 249 250 252 252 253 254 256 256 256 256 259 261 265 267 269 271 273 274 276 277 278 278 275 272 270 269 269 270 273 277 282 289 297 304 309 313 316 319 320 321 320 320 319 318 318 317 316 314 312 311 310 310 310 312 315 316 316 317 316 315 315 315 310 301 297 298 299 296 290 286 286
226 227 228 229 230 231 233 235 237 238 237 237 237 239 239 240 242 244 245 246 247 248 250 251 252 254 257 260 263 266 268 269 270 272 273 274 274 272 269 267 266 266 267 269 272 275 279 284 290 296 302 307 311 314 316 318 319 318 318 317 315 314 313 312 310 309 308 307 307 308 309 309 309 312 314 314 313 313 312 304 295 291 293 294 290 284 281
226 227 227 228 229 231 232 234 234 234 233 233 233 234 235 237 239 241 243 244 245 246 247 248 250 252 255 258 261 263 264 266 267 269 270 270 269 267 265 264 264 264 264 266 270 273 277 281 286 291 296 300 305 308 311 313 315 316 315 315 313 312 310 309 308 307 306 305 305 305 305 304 303 304 307 309 311 313 312 308 299 290 288 289 289 285 280
226 227 228 229 230 231 232 233 232 232 232 232 233 234 235 237 239 242 244 246 247 248 249 251 252 253 255 257 259 261 262 264 265 267 267 267 265 265 264 263 263 263 264 266 269 273 277 281 284 289 293 296 299 303 306 308 310 311 312 312 312 310 309 307 306 305 304 303 303 303 303 302 301 298 297 300 304 306 306 305 300 293 285 283 283 284 281
226 228 229 230 230 231 231 231 231 231 232 233 234 236 238 240 242 244 247 249 250 251 252 252 253 254 255 257 258 259 261 263 265 266 267 267 267 266 266 265 265 264 265 267 269 272 276 279 283 286 289 292 295 298 301 303 305 306 307 308 309 308 307 306 304 303 302 301 301 300 300 300 299 297 294 294 297 299 300 301 300 295 287 279 277 279 280
226 228 228 229 229 229 230 230 231 231 232 234 237 240 242 244 245 247 250 252 253 254 255 256 257 258 259 259 260 261 263 264 266 267 268 270 271 271 271 270 268 267 268 269 271 274 276 279 282 284 287 290 292 295 297 299 300 302 303 304 305 305 305 304 303 301 300 299 298 298 297 297 296 296 294 293 293 293 292 294 296 296 290 282 275 274 276
227 228 229 228 228 229 229 231 232 232 233 235 238 241 244 247 248 249 251 252 254 256 258 259 261 262 262 263 264 265 266 267 268 269 270 272 272 273 273 273 272 271 271 272 273 276 278 279 281 283 286 288 290 292 294 296 297 298 299 300 301 302 302 301 300 299 298 296 295 295 295 294 294 293 293 293 292 289 285 285 288 290 289 284 278 273 271
228 229 230 230 230 230 231 232 233 234 235 237 239 242 245 248 250 251 252 253 254 256 258 260 261 263 264 265 266 267 268 269 270 270 271 272 272 272 273 274 274 275 275 275 276 277 278 280 281 283 285 287 289 290 292 293 294 296 297 298 299 299 299 299 298 297 296 294 292 291 291 291 291 291 290 290 290 289 285 282 281 281 282 283 281 275 269
230 231 231 232 232 233 234 234 235 236 238 240 242 245 247 249 251 252 253 254 256 257 259 260 262 264 265 266 267 268 269 269 270 271 272 272 272 273 273 274 275 276 276 276 277 278 279 280 282 284 286 287 288 290 291 292 293 294 295 296 296 296 296 296 295 295 294 292 291 289 287 286 287 288 288 288 288 288 286 282 277 276 277 279 279 275 270
231 233 233 233 233 234 235 237 238 239 241 243 245 246 248 249 251 253 254 256 258 259 260 262 263 265 266 267 268 268 269 270 271 272 273 274 274 274 274 274 274 275 275 276 277 278 280 281 283 284 286 287 289 290 291 291 292 293 294 294 294 294 294 294 293 293 292 291 289 287 285 283 282 282 284 285 286 287 287 284 280 277 276 276 276 276 274
231 233 234 235 235 236 237 239 240 241 242 244 245 247 248 250 251 253 255 256 258 259 261 262 263 264 265 266 267 268 270 271 273 274 274 274 275 275 275 274 274 275 276 277 278 280 281 283 284 286 287 288 290 291 291 292 292 293 292 292 292 292 292 292 291 291 290 289 288 286 284 282 280 278 279 280 282 283 284 284 283 281 278 277 276 276 275
231 233 234 236 237 238 239 240 241 242 243 245 246 248 249 251 252 253 255 256 258 260 261 263 263 264 265 266 267 269 270 271 272 273 273 273 274 274 275 275 276 276 277 279 280 281 283 284 286 287 289 290 290 291 292 292 292 292 291 291 290 290 289 289 289 289 288 287 286 285 283 282 280 278 276 277 278 279 279 280 281 280 278 275 273 273 274
232 233 235 236 237 239 240 241 242 243 244 246 247 249 250 252 253 254 256 257 259 260 261 262 263 264 265 266 267 268 269 270 270 270 271 271 272 273 274 276 278 279 280 281 282 283 284 285 287 288 289 290 290 290 291 291 291 291 290 290 289 288 288 287 286 286 285 285 284 283 282 281 280 278 276 275 275 276 277 276 277 277 276 273 272 272 272
232 234 236 237 239 240 241 242 243 245 246 247 248 249 250 252 253 255 256 257 259 260 261 262 263 264 265 266 267 268 269 270 270 271 272 273 274 275 277 278 280 281 281 282 283 284 285 287 288 288 289 289 289 289 290 290 290 289 289 288 288 287 287 286 285 284 284 283 282 281 280 279 278 278 277 275 273 274 274 275 275 274 274 274 274 271 268
235 237 238 239 241 242 243 245 246 247 248 249 250 251 251 252 254 255 256 257 258 259 260 261 262 263 264 265 267 268 269 271 272 273 274 276 277 279 280 281 282 282 282 283 284 285 286 287 287 288 288 288 289 289 290 290 289 288 288 287 287 287 286 286 285 284 283 282 281 281 280 278 277 277 276 275 273 272 272 273 273 273 273 273 273 269 264
237 238 240 241 242 244 245 246 247 248 249 250 250 251 252 253 253 254 255 255 256 257 258 259 260 262 263 265 266 268 270 271 271 273 275 278 280 282 283 284 284 285 285 285 286 287 287 287 286 286 287 288 289 289 290 289 289 288 288 288 288 287 287 286 286 285 284 283 282 280 279 278 278 276 276 275 274 272 271 270 271 272 272 272 270 267 263
Height
5901 5903 5904 5906 5908 5909 5911 5913 5914 5916 5917 5919 5921 5921 5921 5922 5922 5922 5922 5922 5921 5921 5920 5919 5918 5917 5917 5917 5917 5917 5916 5915 5914 5913 5913 5912 5910 5909 5907 5907 5905 5904 5903 5902 5900 5899 5897 5895 5893 5891 5889 5886 5884 5881 5879 5878 5877 5876 5875 5874 5874 5873 5873 5871 5870 5869 5868 5867 5867 5867 5866 5865 5864 5863 5861 5860 5859 5858 5857 5856 5854 5853 5851 5850 5848 5846 5845
5901 5902 5904 5906 5907 5909 5910 5912 5913 5915 5917 5918 5920 5920 5921 5921 5921 5922 5921 5921 5920 5920 5919 5918 5917 5917 5917 5917 5917 5916 5915 5914 5913 5913 5912 5911 5909 5908 5907 5906 5905 5903 5903 5902 5900 5898 5896 5894 5893 5891 5889 5886 5884 5882 5881 5879 5877 5876 5875 5875 5874 5873 5872 5870 5868 5867 5866 5865 5864 5863 5863 5862 5861 5860 5860 5859 5858 5857 5855 5853 5852 5851 5850 5849 5847 5846 5844
5900 5902 5903 5905 5907 5908 5910 5911 5913 5914 5916 5917 5918 5919 5920 5920 5920 5921 5920 5920 5920 5919 5918 5917 5916 5916 5917 5917 5916 5915 5914 5913 5913 5913 5911 5910 5908 5907 5906 5905 5904 5903 5903 5901 5900 5898 5896 5894 5892 5891 5888 5886 5884 5882 5881 5879 5878 5877 5876 5875 5874 5873 5871 5869 5867 5865 5864 5863 5862 5861 5861 5860 5859 5859 5859 5858 5857 5856 5854 5852 5850 5849 5848 5848 5847 5845 5844
5899 5901 5903 5904 5906 5908 5909 5911 5912 5913 5914 5916 5917 5917 5918 5918 5919 5919 5919 5919 5919 5918 5917 5916 5916 5916 5917 5917 5916 5915 5913 5912 5912 5912 5910 5909 5908 5907 5906 5905 5904 5903 5902 5901 5899 5898 5896 5894 5892 5890 5888 5885 5883 5882 5881 5879 5878 5877 5876 5875 5874 5872 5870 5868 5866 5864 5863 5862 5861 5859 5858 5857 5857 5857 5857 5857 5856 5855 5853 5851 5849 5848 5847 5846 5846 5845 5843
5899 5900 5902 5904 5905 5907 5908 5910 5911 5912 5913 5914 5915 5916 5916 5917 5917 5918 5918 5918 5917 5917 5916 5916 5915 5916 5917 5917 5915 5914 5912 5911 5911 5910 5909 5908 5907 5906 5905 5904 5903 5903 5901 5900 5899 5897 5896 5894 5892 5890 5888 5885 5884 5882 5881 5879 5878 5876 5875 5874 5873 5871 5869 5867 5865 5863 5862 5861 5860 5858 5856 5855 5854 5855 5855 5854 5854 5853 5852 5850 5849 5847 5845 5845 5844 5844 5842
5899 5900 5901 5903 5904 5906 5907 5908 5909 5911 5912 5913 5914 5915 5915 5916 5916 5916 5916 5916 5916 5916 5915 5915 5915 5916 5916 5916 5914 5912 5911 5910 5910 5909 5908 5908 5907 5906 5905 5904 5903 5902 5901 5899 5898 5897 5895 5894 5892 5890 5887 5885 5884 5882 5880 5879 5877 5876 5875 5873 5872 5870 5868 5866 5864 5862 5861 5859 5859 5858 5856 5854 5853 5853 5853 5852 5852 5852 5851 5850 5848 5847 5845 5843 5843 5842 5841
5898 5900 5901 5902 5904 5905 5906 5908 5909 5910 5911 5912 5913 5913 5914 5915 5915 5915 5915 5915 5915 5915 5915 5915 5915 5916 5915 5915 5913 5911 5910 5909 5909 5908 5907 5907 5906 5905 5904 5903 5902 5901 5900 5898 5897 5896 5895 5894 5892 5890 5887 5885 5884 5882 5880 5878 5876 5875 5874 5872 5871 5869 5867 5864 5862 5861 5860 5858 5857 5856 5855 5853 5852 5852 5851 5850 5850 5850 5849 5849 5848 5847 5844 5843 5842 5841 5840
5897 5899 5901 5902 5904 5905 5906 5907 5908 5909 5910 5911 5912 5913 5913 5913 5914 5914 5914 5914 5914 5913 5914 5914 5914 5914 5914 5913 5911 5909 5909 5908 5908 5907 5907 5907 5906 5905 5904 5903 5902 5901 5899 5897 5896 5895 5895 5893 5891 5889 5887 5885 5883 5881 5879 5878 5876 5874 5872 5871 5870 5868 5865 5862 5861 5860 5858 5856 5855 5853 5852 5852 5851 5850 5849 5849 5849 5849 5848 5848 5847 5846 5844 5842 5842 5841 5839
5897 5899 5900 5901 5903 5904 5905 5907 5908 5908 5909 5910 5911 5912 5912 5912 5912 5912 5912 5912 5912 5912 5912 5913 5913 5913 5912 5910 5909 5908 5908 5907 5907 5907 5907 5906 5906 5905 5904 5903 5902 5900 5898 5896 5895 5894 5893 5892 5890 5888 5886 5884 5882 5880 5878 5877 5875 5873 5871 5869 5868 5866 5863 5860 5858 5857 5855 5853 5852 5850 5850 5850 5850 5849 5849 5848 5848 5848 5847 5846 5846 5845 5843 5842 5841 5840 5838
5896 5898 5899 5901 5903 5904 5905 5906 5907 5907 5908 5909 5910 5910 5911 5911 5911 5910 5910 5910 5909 5910 5910 5911 5911 5910 5910 5908 5907 5907 5907 5907 5907 5907 5907 5906 5905 5904 5903 5902 5901 5900 5898 5896 5895 5893 5892 5891 5889 5887 5884 5882 5879 5877 5876 5876 5875 5873 5871 5869 5866 5864 5862 5859 5857 5855 5853 5852 5851 5850 5849 5849 5849 5849 5849 5849 5848 5848 5846 5846 5845 5844 5843 5842 5841 5840 5838
5895 5897 5898 5900 5902 5903 5904 5905 5906 5906 5907 5908 5908 5909 5909 5909 5908 5908 5907 5907 5907 5908 5908 5908 5909 5909 5908 5907 5906 5906 5906 5906 5906 5907 5906 5905 5904 5903 5903 5902 5900 5899 5897 5896 5894 5893 5891 5889 5887 5885 5882 5880 5877 5875 5874 5874 5874 5872 5871 5868 5865 5863 5861 5859 5856 5854 5853 5852 5851 5850 5850 5850 5849 5849 5849 5849 5848 5847 5846 5845 5845 5844 5843 5842 5841 5839 5837
5895 5896 5898 5899 5901 5901 5902 5904 5905 5905 5906 5906 5906 5906 5907 5906 5906 5905 5904 5904 5905 5906 5906 5907 5907 5908 5907 5906 5906 5905 5906 5906 5906 5906 5906 5905 5904 5903 5902 5901 5899 5898 5896 5895 5893 5892 5890 5888 5886 5884 5881 5878 5875 5873 5873 5874 5873 5872 5870 5867 5864 5862 5861 5858 5856 5855 5855 5854 5854 5853 5852 5851 5851 5850 5849 5848 5848 5847 5846 5845 5844 5843 5843 5842 5840 5839 5837
5894 5896 5897 5898 5899 5900 5901 5902 5903 5904 5904 5903 5903 5904 5904 5904 5904 5903 5903 5903 5904 5904 5905 5906 5906 5906 5906 5905 5905 5905 5905 5906 5906 5906 5905 5904 5903 5902 5901 5900 5899 5897 5896 5894 5893 5891 5888 5886 5884 5882 5880 5878 5875 5872 5872 5873 5873 5871 5869 5866 5864 5863 5861 5859 5857 5857 5856 5856 5855 5854 5853 5852 5852 5851 5849 5848 5847 5847 5846 5845 5844 5844 5843 5842 5840 5838 5836
5893 5895 5896 5897 5898 5899 5900 5901 5902 5902 5902 5901 5901 5902 5902 5903 5902 5902 5902 5902 5903 5904 5904 5905 5905 5905 5905 5905 5905 5905 5905 5905 5905 5905 5905 5904 5903 5901 5900 5899 5898 5896 5895 5894 5892 5890 5887 5885 5883 5882 5880 5878 5875 5872 5871 5872 5872 5871 5869 5866 5865 5864 5862 5860 5859 5858 5858 5857 5856 5854 5854 5853 5852 5851 5849 5848 5848 5847 5845 5845 5845 5844 5843 5841 5840 5838 5836
5891 5893 5895 5896 5898 5899 5900 5901 5901 5901 5900 5900 5900 5901 5901 5901 5901 5901 5901 5901 5902 5903 5904 5904 5904 5904 5904 5904 5904 5905 5905 5905 5904 5904 5904 5903 5902 5901 5899 5898 5896 5895 5894 5892 5891 5889 5886 5884 5882 5881 5880 5878 5876 5873 5871 5871 5871 5871 5869 5867 5865 5864 5863 5861 5860 5859 5858 5857 5855 5855 5854 5854 5852 5850 5849 5849 5848 5847 5846 5845 5844 5843 5842 5841 5839 5837 5835
5891 5893 5894 5895 5897 5898 5899 5900 5900 5899 5899 5899 5900 5900 5900 5900 5900 5900 5901 5901 5901 5902 5902 5903 5904 5904 5904 5905 5904 5904 5904 5904 5904 5903 5903 5902 5901 5900 5898 5896 5895 5893 5892 5890 5889 5887 5885 5883 5882 5881 5880 5878 5876 5872 5870 5870 5871 5873 5871 5868 5866 5865 5864 5862 5861 5860 5859 5857 5856 5855 5855 5854 5852 5851 5850 5850 5848 5847 5846 5845 5843 5842 5841 5840 5838 5836 5835
5890 5892 5893 5895 5897 5898 5898 5898 5898 5898 5898 5898 5899 5899 5899 5899 5899 5899 5899 5900 5900 5901 5901 5902 5903 5904 5904 5904 5904 5904 5904 5903 5903 5903 5902 5901 5900 5899 5897 5895 5894 5892 5891 5889 5888 5886 5885 5884 5882 5881 5880 5878 5876 5874 5871 5871 5872 5874 5874 5871 5868 5866 5865 5864 5862 5861 5859 5858 5856 5855 5854 5853 5852 5851 5850 5850 5848 5846 5845 5844 5842 5841 5840 5839 5837 5836 5834
5889 5890 5892 5894 5896 5896 5896 5896 5897 5897 5897 5897 5897 5898 5898 5898 5898 5898 5898 5899 5899 5900 5900 5902 5903 5904 5904 5904 5904 5903 5903 5903 5903 5902 5901 5900 5899 5898 5897 5895 5894 5892 5890 5888 5887 5885 5885 5884 5883 5882 5880 5879 5878 5877 5875 5873 5872 5873 5873 5872 5870 5867 5865 5864 5863 5862 5860 5859 5857 5855 5853 5852 5852 5852 5851 5850 5848 5845 5844 5843 5842 5841 5839 5838 5836 5835 5834
5888 5890 5892 5893 5894 5894 5894 5895 5895 5895 5896 5896 5896 5896 5896 5896 5896 5897 5897 5898 5898 5899 5899 5901 5902 5903 5903 5903 5903 5903 5903 5902 5902 5901 5901 5900 5899 5898 5896 5895 5893 5891 5889 5887 5885 5885 5884 5883 5882 5881 5880 5879 5879 5879 5877 5874 5871 5870 5870 5869 5867 5865 5863 5862 5862 5861 5860 5860 5859 5856 5854 5853 5853 5852 5851 5848 5846 5845 5844 5843 5842 5840 5839 5837 5836 5834 5833
5888 5890 5891 5892 5892 5893 5893 5894 5894 5894 5894 5895 5895 5895 5895 5895 5896 5896 5896 5896 5897 5898 5898 5899 5900 5901 5901 5902 5902 5902 5902 5901 5901 5900 5900 5899 5898 5896 5895 5893 5892 5890 5888 5886 5885 5884 5884 5883 5881 5880 5879 5878 5878 5878 5878 5874 5870 5867 5866 5864 5862 5861 5860 5859 5858 5858 5858 5859 5860 5858 5856 5854 5853 5851 5849 5846 5845 5844 5844 5843 5841 5840 5838 5837 5835 5834 5833
5887 5889 5890 5890 5891 5891 5892 5893 5893 5893 5893 5893 5894 5894 5894 5895 5895 5895 5895 5896 5896 5897 5897 5898 5899 5899 5900 5900 5901 5901 5901 5900 5900 5899 5898 5897 5896 5894 5893 5892 5891 5889 5887 5886 5885 5884 5883 5882 5881 5880 5878 5876 5876 5876 5875 5873 5870 5866 5864 5862 5860 5859 5858 5856 5855 5855 5856 5857 5858 5858 5856 5853 5851 5849 5847 5845 5845 5844 5843 5842 5840 5839 5838 5836 5835 5834 5833
5885 5886 5887 5888 5889 5890 5890 5891 5892 5892 5892 5892 5893 5893 5894 5894 5894 5895 5895 5895 5895 5896 5896 5897 5897 5898 5898 5899 5899 5899 5899 5899 5898 5898 5896 5895 5894 5893 5891 5890 5889 5888 5886 5885 5885 5884 5884 5883 5881 5879 5876 5874 5873 5873 5872 5871 5869 5868 5866 5864 5861 5858 5856 5854 5854 5855 5855 5855 5855 5854 5853 5850 5848 5847 5845 5845 5845 5843 5842 5840 5839 5838 5836 5835 5834 5833 5832
5882 5883 5884 5885 5887 5888 5888 5889 5890 5890 5891 5891 5892 5892 5892 5893 5893 5894 5894 5894 5894 5894 5895 5895 5896 5896 5897 5897 5897 5898 5898 5898 5897 5896 5895 5894 5893 5892 5890 5889 5888 5886 5885 5884 5884 5884 5883 5882 5881 5878 5875 5872 5871 5870 5870 5869 5869 5868 5867 5865 5862 5858 5855 5854 5854 5854 5855 5854 5852 5851 5850 5848 5847 5846 5846 5845 5844 5842 5840 5839 5838 5837 5835 5834 5834 5833 5832
5880 5881 5882 5883 5885 5886 5886 5887 5888 5889 5889 5890 5890 5891 5891 5892 5892 5893 5893 5893 5893 5893 5894 5894 5894 5895 5895 5895 5896 5896 5896 5896 5895 5895 5894 5893 5892 5891 5889 5888 5886 5885 5884 5883 5883 5883 5883 5882 5880 5877 5875 5872 5870 5868 5867 5867 5868 5868 5866 5864 5861 5858 5856 5854 5853 5853 5853 5852 5851 5850 5849 5848 5847 5846 5845 5844 5842 5841 5839 5838 5837 5836 5835 5834 5834 5833 5832
5878 5879 5880 5882 5883 5884 5885 5886 5887 5887 5888 5888 5889 5889 5890 5890 5891 5891 5892 5892 5892 5892 5892 5892 5892 5893 5893 5893 5893 5893 5893 5893 5893 5893 5893 5892 5890 5889 5888 5886 5885 5884 5883 5883 5883 5883 5882 5881 5879 5877 5874 5872 5870 5868 5866 5865 5865 5865 5864 5863 5861 5859 5857 5855 5853 5852 5851 5850 5849 5849 5848 5848 5847 5846 5844 5842 5841 5840 5839 5838 5837 5836 5835 5835 5834 5833 5832
5876 5877 5878 5880 5881 5882 5883 5884 5885 5885 5886 5886 5887 5887 5888 5889 5889 5890 5890 5890 5890 5890 5891 5891 5891 5891 5891 5891 5891 5891 5891 5891 5891 5891 5891 5890 5889 5888 5887 5885 5884 5883 5882 5882 5882 5882 5881 5880 5879 5877 5874 5872 5871 5869 5867 5865 5863 5862 5862 5860 5859 5858 5857 5855 5854 5852 5851 5849 5849 5848 5847 5847 5846 5845 5844 5842 5841 5840 5839 5839 5838 5837 5836 5835 5834 5833 5833
5873 5875 5876 5877 5879 5880 5881 5881 5882 5882 5883 5884 5885 5885 5886 5887 5887 5888 5888 5888 5888 5889 5889 5889 5889 5889 5889 5889 5890 5890 5890 5890 5889 5889 5889 5888 5887 5886 5885 5884 5883 5882 5881 5881 5881 5881 5881 5879 5878 5876 5874 5873 5871 5870 5868 5866 5863 5861 5860 5859 5858 5857 5855 5854 5853 5852 5850 5849 5848 5847 5847 5846 5846 5845 5844 5843 5841 5840 5839 5839 5838 5837 5836 5835 5834 5833 5832
5871 5872 5874 5875 5876 5877 5877 5878 5879 5880 5881 5882 5883 5884 5884 5885 5885 5885 5885 5886 5886 5886 5887 5887 5887 5887 5888 5888 5888 5888 5888 5887 5887 5887 5887 5886 5885 5885 5884 5883 5882 5881 5881 5881 5881 5881 5880 5879 5877 5875 5874 5872 5871 5870 5868 5866 5864 5862 5860 5859 5858 5857 5855 5854 5852 5851 5850 5849 5848 5847 5846 5846 5845 5845 5844 5843 5842 5840 5840 5839 5837 5837 5836 5835 5834 5833 5832
5868 5869 5871 5872 5872 5874 5875 5876 5877 5878 5878 5880 5881 5881 5882 5882 5882 5883 5883 5883 5883 5884 5884 5884 5885 5885 5885 5886 5886 5886 5885 5885 5885 5885 5885 5884 5883 5883 5882 5881 5880 5880 5880 5880 5880 5879 5879 5877 5876 5874 5873 5872 5871 5870 5869 5867 5865 5862 5861 5860 5859 5858 5856 5854 5853 5851 5850 5849 5848 5847 5846 5846 5845 5844 5844 5843 5842 5840 5839 5838 5837 5836 5835 5834 5833 5833 5832
5865 5866 5868 5869 5870 5871 5873 5874 5874 5874 5875 5877 5878 5878 5879 5879 5880 5880 5880 5880 5881 5882 5882 5883 5883 5883 5883 5883 5883 5883 5883 5883 5883 5883 5883 5882 5882 5882 5881 5880 5879 5879 5879 5878 5878 5878 5877 5876 5874 5873 5871 5870 5870 5869 5868 5867 5865 5863 5861 5859 5858 5857 5856 5855 5853 5852 5850 5849 5849 5848 5847 5846 5845 5844 5843 5842 5841 5840 5839 5838 5837 5836 5835 5834 5833 5832 5831
5862 5863 5865 5866 5867 5869 5870 5870 5871 5872 5873 5874 5875 5875 5876 5876 5877 5877 5877 5878 5879 5880 5880 5880 5881 5881 5881 5881 5881 5881 5881 5881 5881 5881 5881 5881 5881 5880 5880 5879 5878 5878 5877 5877 5877 5877 5876 5874 5873 5872 5870 5869 5868 5868 5867 5866 5865 5864 5862 5860 5858 5857 5856 5855 5853 5852 5850 5849 5849 5848 5847 5846 5845 5844 5843 5842 5841 5840 5839 5837 5836 5835 5834 5833 5832 5832 5831
5860 5861 5862 5863 5864 5865 5866 5867 5868 5869 5870 5871 5871 5872 5872 5873 5874 5874 5875 5876 5877 5877 5878 5878 5878 5879 5879 5879 5879 5879 5879 5879 5879 5879 5879 5879 5879 5879 5878 5878 5877 5876 5876 5876 5876 5875 5874 5873 5872 5871 5870 5868 5867 5867 5866 5865 5864 5863 5862 5860 5858 5856 5855 5854 5853 5852 5850 5849 5848 5847 5846 5845 5844 5843 5842 5841 5840 5839 5838 5837 5835 5834 5833 5833 5832 5831 5830
5857 5858 5859 5860 5861 5862 5863 5864 5865 5866 5867 5868 5868 5869 5869 5870 5871 5872 5872 5873 5874 5874 5875 5876 5876 5877 5877 5877 5877 5877 5877 5877 5877 5877 5877 5877 5877 5877 5876 5876 5875 5875 5874 5874 5874 5874 5873 5872 5871 5870 5869 5867 5866 5865 5865 5864 5863 5862 5861 5859 5857 5855 5854 5853 5852 5851 5849 5848 5847 5846 5845 5844 5843 5842 5841 5840 5839 5838 5837 5836 5835 5834 5833 5832 5831 5830 5830
5854 5855 5855 5856 5857 5859 5860 5861 5862 5863 5864 5865 5866 5866 5867 5867 5868 5869 5869 5870 5871 5872 5873 5873 5874 5874 5875 5875 5875 5875 5875 5875 5875 5875 5875 5875 5875 5875 5874 5874 5873 5873 5873 5873 5872 5872 5871 5870 5869 5868 5867 5866 5865 5864 5863 5862 5862 5861 5860 5858 5857 5855 5853 5852 5850 5849 5848 5847 5845 5844 5843 5842 5841 5840 5840 5839 5838 5837 5836 5835 5834 5833 5832 5831 5830 5829 5829
5850 5851 5853 5854 5855 5856 5857 5858 5860 5861 5861 5862 5863 5863 5864 5865 5865 5866 5866 5867 5868 5869 5870 5870 5871 5871 5872 5872 5872 5872 5872 5872 5872 5872 5872 5872 5872 5872 5872 5871 5871 5871 5871 5871 5870 5870 5869 5869 5868 5867 5866 5865 5864 5863 5862 5861 5860 5859 5858 5857 5855 5854 5852 5851 5849 5848 5847 5846 5844 5843 5842 5840 5840 5839 5838 5837 5837 5836 5835 5834 5833 5832 5831 5830 5829 5828 5828
5847 5849 5850 5850 5852 5853 5854 5856 5857 5858 5859 5860 5860 5861 5862 5862 5862 5863 5863 5864 5865 5866 5867 5868 5868 5868 5869 5869 5869 5869 5869 5869 5869 5869 5869 5870 5870 5870 5869 5869 5869 5869 5869 5868 5868 5868 5867 5867 5866 5865 5864 5863 5862 5861 5860 5859 5858 5857 5856 5855 5854 5852 5851 5849 5848 5846 5845 5844 5843 5841 5840 5839 5838 5837 5836 5835 5834 5834 5833 5833 5832 5831 5830 5829 5828 5827 5827
5844 5845 5846 5847 5848 5850 5851 5853 5854 5855 5857 5857 5858 5859 5859 5860 5860 5860 5861 5862 5863 5863 5864 5865 5865 5865 5866 5866 5866 5866 5866 5866 5866 5866 5867 5867 5867 5867 5867 5867 5867 5866 5866 5866 5865 5865 5865 5864 5864 5863 5862 5861 5861 5860 5859 5858 5857 5855 5854 5853 5852 5850 5849 5847 5846 5844 5843 5842 5840 5840 5839 5837 5836 5834 5834 5833 5832 5831 5831 5831 5830 5829 5829 5828 5827 5826 5825
5840 5841 5843 5844 5846 5847 5849 5850 5852 5853 5854 5855 5856 5856 5857 5857 5858 5858 5859 5860 5860 5861 5862 5862 5862 5863 5863 5863 5863 5864 5864 5864 5864 5864 5864 5864 5864 5864 5864 5864 5864 5864 5864 5863 5863 5862 5862 5862 5861 5861 5860 5859 5858 5858 5857 5856 5855 5853 5852 5851 5849 5848 5847 5845 5844 5842 5841 5839 5838 5838 5837 5835 5833 5832 5832 5831 5830 5829 5829 5828 5828 5828 5827 5826 5825 5825 5824
5837 5838 5840 5842 5843 5845 5846 5848 5850 5851 5852 5853 5853 5854 5855 5855 5855 5856 5856 5857 5858 5859 5859 5859 5860 5860 5860 5861 5861 5861 5861 5861 5861 5861 5861 5862 5862 5862 5862 5861 5861 5861 5861 5860 5860 5860 5859 5859 5858 5858 5857 5857 5856 5855 5854 5853 5852 5851 5850 5848 5847 5845 5844 5842 5841 5840 5838 5837 5836 5835 5834 5832 5831 5830 5830 5829 5827 5827 5826 5826 5826 5825 5825 5824 5824 5823 5822
5833 5835 5837 5838 5840 5842 5844 5845 5847 5848 5849 5849 5850 5851 5852 5852 5853 5853 5854 5854 5855 5856 5856 5857 5857 5858 5858 5858 5858 5858 5858 5858 5858 5858 5858 5858 5859 5859 5858 5858 5858 5858 5858 5857 5857 5857 5856 5856 5855 5855 5854 5854 5853 5852 5851 5850 5849 5848 5847 5845 5844 5842 5841 5840 5838 5837 5835 5834 5833 5832 5831 5830 5829 5829 5828 5826 5825 5824 5824 5823 5823 5823 5823 5822 5822 5821 5821
5830 5832 5833 5835 5837 5839 5841 5842 5844 5845 5846 5846 5847 5848 5849 5849 5850 5850 5851 5852 5852 5853 5854 5854 5854 5855 5855 5855 5855 5855 5855 5855 5855 5855 5855 5855 5855 5855 5855 5855 5855 5854 5854 5854 5854 5854 5853 5853 5852 5852 5851 5850 5850 5849 5848 5847 5846 5844 5843 5842 5841 5839 5838 5837 5835 5834 5833 5831 5830 5829 5828 5827 5827 5826 5825 5823 5822 5821 5821 5821 5821 5821 5820 5820 5820 5819 5819
5827 5829 5830 5832 5834 5836 5837 5839 5840 5841 5842 5843 5844 5844 5845 5846 5847 5847 5848 5849 5849 5850 5850 5851 5851 5852 5852 5852 5852 5852 5852 5852 5852 5852 5852 5851 5851 5851 5851 5851 5851 5851 5851 5851 5851 5850 5850 5849 5849 5848 5847 5847 5846 5845 5844 5843 5842 5841 5840 5838 5837 5836 5835 5833 5832 5831 5829 5828 5827 5826 5825 5824 5824 5823 5822 5820 5819 5818 5819 5819 5819 5818 5818 5818 5817 5817 5817
5824 5825 5827 5829 5831 5832 5834 5835 5837 5838 5839 5840 5841 5841 5842 5843 5844 5844 5845 5846 5846 5847 5847 5848 5848 5848 5848 5848 5848 5848 5848 5849 5849 5848 5848 5848 5848 5848 5847 5847 5847 5847 5847 5847 5847 5846 5846 5845 5845 5844 5843 5843 5842 5841 5840 5839 5838 5837 5836 5834 5833 5832 5831 5829 5828 5827 5826 5825 5824 5822 5821 5820 5820 5819 5818 5817 5816 5816 5817 5816 5816 5815 5815 5815 5815 5814 5814
5820 5822 5824 5825 5827 5829 5831 5832 5834 5835 5836 5837 5837 5838 5839 5839 5840 5841 5842 5842 5843 5844 5844 5845 5845 5845 5845 5845 5845 5845 5845 5845 5845 5845 5845 5845 5845 5844 5844 5844 5844 5843 5843 5843 5843 5842 5842 5841 5841 5840 5839 5838 5837 5837 5836 5835 5833 5832 5831 5830 5829 5828 5826 5825 5824 5823 5822 5821 5820 5819 5818 5817 5816 5815 5814 5813 5813 5813 5814 5813 5813 5812 5813 5812 5812 5811 5811
5817 5818 5820 5822 5824 5825 5827 5828 5830 5831 5832 5833 5834 5834 5835 5836 5836 5837 5838 5839 5839 5840 5841 5841 5842 5842 5842 5842 5842 5842 5842 5842 5842 5842 5842 5842 5842 5841 5841 5840 5840 5839 5839 5839 5838 5838 5837 5837 5836 5836 5835 5834 5833 5832 5831 5830 5829 5828 5827 5825 5824 5823 5822 5821 5820 5819 5818 5817 5816 5815 5814 5813 5812 5811 5810 5809 5808 5809 5810 5810 5809 5809 5809 5808 5808 5808 5808
5813 5815 5816 5818 5820 5822 5823 5825 5826 5827 5828 5829 5830 5831 5831 5832 5833 5833 5834 5835 5836 5836 5837 5838 5838 5838 5838 5838 5838 5838 5838 5838 5838 5838 5838 5838 5837 5838 5838 5837 5836 5835 5835 5834 5834 5833 5833 5832 5832 5831 5830 5829 5828 5827 5826 5825 5824 5823 5822 5821 5819 5818 5817 5816 5815 5814 5813 5813 5812 5811 5810 5810 5809 5808 5807 5806 5804 5804 5804 5804 5804 5804 5804 5803 5803 5804 5804
5810 5811 5813 5814 5816 5818 5819 5821 5822 5823 5824 5825 5826 5827 5828 5828 5829 5830 5831 5831 5832 5832 5833 5834 5834 5834 5833 5833 5833 5833 5834 5834 5834 5834 5834 5833 5833 5833 5833 5833 5832 5831 5831 5830 5829 5828 5828 5827 5826 5826 5825 5824 5823 5822 5821 5820 5819 5818 5817 5816 5814 5813 5812 5811 5811 5810 5809 5808 5807 5806 5805 5805 5804 5804 5803 5802 5801 5800 5800 5799 5799 5799 5799 5799 5800 5800 5801
5805 5807 5809 5811 5812 5814 5815 5817 5818 5819 5820 5821 5823 5824 5824 5825 5826 5826 5827 5827 5828 5828 5829 5829 5829 5829 5829 5829 5829 5829 5829 5830 5829 5829 5829 5829 5828 5828 5828 5828 5827 5827 5826 5825 5824 5823 5823 5822 5821 5820 5819 5818 5817 5816 5815 5815 5814 5813 5812 5811 5809 5808 5807 5806 5806 5805 5804 5803 5802 5801 5801 5800 5799 5799 5798 5798 5797 5797 5796 5795 5795 5795 5795 5795 5796 5796 5797
5802 5804 5805 5807 5809 5810 5811 5813 5814 5815 5816 5818 5819 5820 5820 5821 5822 5822 5823 5823 5824 5824 5824 5824 5824 5824 5824 5824 5824 5825 5825 5825 5825 5825 5824 5824 5824 5824 5823 5823 5822 5822 5821 5820 5819 5818 5817 5817 5816 5815 5814 5813 5812 5811 5810 5809 5808 5807 5806 5805 5804 5803 5802 5801 5800 5800 5799 5798 5797 5796 5796 5795 5794 5794 5793 5793 5792 5792 5791 5791 5791 5790 5790 5791 5791 5792 5793
5798 5800 5802 5803 5804 5806 5807 5809 5810 5811 5812 5814 5815 5815 5816 5817 5818 5818 5819 5819 5820 5820 5820 5820 5819 5819 5819 5820 5820 5820 5820 5820 5820 5820 5820 5819 5819 5819 5819 5818 5818 5817 5816 5814 5813 5812 5812 5811 5810 5809 5808 5807 5806 5805 5805 5804 5803 5802 5801 5800 5799 5798 5797 5796 5795 5794 5794 5793 5792 5792 5791 5790 5789 5789 5788 5788 5787 5787 5786 5786 5786 5786 5786 5786 5788 5788 5788
5795 5796 5797 5799 5800 5802 5803 5805 5806 5807 5808 5809 5810 5811 5812 5813 5813 5814 5814 5815 5815 5815 5815 5815 5815 5815 5815 5815 5816 5816 5816 5815 5815 5815 5815 5814 5814 5814 5814 5813 5812 5811 5810 5809 5808 5807 5807 5806 5804 5803 5802 5801 5801 5800 5800 5799 5798 5797 5796 5795 5794 5793 5792 5791 5790 5789 5788 5788 5787 5787 5786 5786 5785 5784 5783 5783 5782 5782 5781 5781 5780 5780 5781 5782 5783 5783 5783
5790 5792 5793 5795 5796 5798 5799 5801 5802 5803 5804 5805 5806 5807 5807 5808 5809 5809 5810 5810 5810 5810 5810 5810 5810 5811 5811 5811 5811 5811 5811 5810 5810 5810 5810 5810 5810 5809 5808 5807 5806 5805 5804 5803 5803 5802 5802 5801 5800 5798 5797 5796 5796 5795 5794 5793 5792 5791 5790 5789 5788 5788 5787 5786 5785 5784 5783 5783 5782 5782 5781 5781 5780 5779 5779 5778 5777 5777 5776 5776 5775 5775 5776 5777 5778 5778 5777